Location: Most
(50.5133°N, 13.6207°E)
Time: 19:20:16
(UTC+01:00)

SEEDS - Pass Details

Date: 30 November 2021
Orbit: 584 x 600 km, 97.6° (Epoch: 22 January)

Event Time Altitude Azimuth Distance (km) Brightness Sun altitude
Rises 06:18:33 0° 359° (N) 2,827 ? -12.8°
Reaches altitude 10° 06:21:33 10° 335° (NNW) 1,919 ? -12.4°
Enters shadow 06:22:13 12° 327° (NNW) 1,782 ? -12.3°
